• In India
  • List of Countries
  • For 7 days
  • Water Temperature
  • Satellite Maps
  • Weather Map
  • Weather Widgets
  • user-avatar
    Login

    Hourly Weather Zamajdanie

    Today, 18 July, Wednesday

    Time Temperature Precipitation Wind Pressure Humidity
    00:00 +18°C° 0.1 mm 2 mps 731 mmHg 95%
    01:00 +18°C° 0.1 mm 2 mps 731 mmHg 96%
    02:00 +18°C° 0.1 mm 2 mps 731 mmHg 96%
    03:00 +18°C° 0.1 mm 2 mps 731 mmHg 97%
    04:00 +18°C° 0.1 mm 2 mps 731 mmHg 97%
    05:00 +18°C° 0 mm 2 mps 732 mmHg 95%
    06:00 +19°C° 0 mm 2 mps 732 mmHg 92%
    07:00 +20°C° 0 mm 2 mps 732 mmHg 90%
    08:00 +22°C° 0.2 mm 1 mps 732 mmHg 87%
    09:00 +22°C° 0.2 mm 1 mps 732 mmHg 85%
    10:00 +23°C° 0.2 mm 1 mps 732 mmHg 82%
    11:00 +24°C° 0.3 mm 1 mps 732 mmHg 78%
    12:00 +25°C° 0.3 mm 2 mps 732 mmHg 73%
    13:00 +27°C° 0.3 mm 2 mps 732 mmHg 69%
    14:00 +27°C° 1.1 mm 2 mps 732 mmHg 71%
    15:00 +26°C° 1.1 mm 2 mps 732 mmHg 74%
    16:00 +26°C° 1.1 mm 2 mps 732 mmHg 76%
    17:00 +25°C° 1.2 mm 2 mps 732 mmHg 80%
    18:00 +25°C° 1.2 mm 2 mps 732 mmHg 84%
    19:00 +24°C° 1.2 mm 2 mps 732 mmHg 88%
    20:00 +23°C° 1.4 mm 2 mps 732 mmHg 90%
    21:00 +21°C° 1.4 mm 2 mps 733 mmHg 92%
    22:00 +21°C° 1.4 mm 2 mps 733 mmHg 95%
    23:00 +20°C° 0.9 mm 2 mps 733 mmHg 95%

    Tomorrow, 19 July, Thursday

    Time Temperature Precipitation Wind Pressure Humidity
    00:00 +20°C° 0.9 mm 2 mps 733 mmHg 96%
    01:00 +20°C° 0.9 mm 2 mps 733 mmHg 96%
    02:00 +20°C° 0.6 mm 2 mps 733 mmHg 97%
    03:00 +19°C° 0.6 mm 3 mps 734 mmHg 97%
    04:00 +19°C° 0.6 mm 3 mps 734 mmHg 97%
    05:00 +20°C° 0.1 mm 3 mps 734 mmHg 95%
    06:00 +21°C° 0.1 mm 3 mps 734 mmHg 92%
    07:00 +22°C° 0.1 mm 4 mps 735 mmHg 89%
    08:00 +23°C° 0 mm 4 mps 735 mmHg 83%
    09:00 +25°C° 0 mm 4 mps 735 mmHg 77%
    10:00 +26°C° 0 mm 5 mps 735 mmHg 71%
    11:00 +27°C° 0 mm 5 mps 735 mmHg 66%
    12:00 +28°C° 0 mm 5 mps 735 mmHg 62%
    13:00 +28°C° 0 mm 5 mps 735 mmHg 57%
    14:00 +28°C° 0 mm 5 mps 735 mmHg 56%
    15:00 +28°C° 0 mm 5 mps 735 mmHg 56%
    16:00 +28°C° 0 mm 5 mps 735 mmHg 55%
    17:00 +27°C° 0 mm 4 mps 736 mmHg 61%
    18:00 +25°C° 0 mm 4 mps 736 mmHg 67%
    19:00 +24°C° 0 mm 3 mps 736 mmHg 73%
    20:00 +22°C° 0 mm 3 mps 736 mmHg 76%
    21:00 +21°C° 0 mm 3 mps 736 mmHg 80%
    22:00 +20°C° 0 mm 3 mps 736 mmHg 84%
    23:00 +19°C° 0 mm 3 mps 736 mmHg 86%

    Day after tomorrow, 20 July, Friday

    Time Temperature Precipitation Wind Pressure Humidity
    00:00 +19°C° 0 mm 3 mps 736 mmHg 89%
    01:00 +18°C° 0 mm 3 mps 736 mmHg 91%
    02:00 +18°C° 0 mm 3 mps 736 mmHg 92%
    03:00 +18°C° 0 mm 4 mps 736 mmHg 93%
    04:00 +17°C° 0 mm 4 mps 736 mmHg 94%
    05:00 +18°C° 0 mm 4 mps 737 mmHg 89%
    06:00 +19°C° 0 mm 4 mps 737 mmHg 85%
    07:00 +20°C° 0 mm 5 mps 737 mmHg 80%
    08:00 +22°C° 0 mm 5 mps 737 mmHg 73%
    09:00 +23°C° 0 mm 5 mps 737 mmHg 66%
    10:00 +26°C° 0 mm 5 mps 737 mmHg 60%
    11:00 +26°C° 0 mm 6 mps 737 mmHg 57%
    12:00 +27°C° 0 mm 6 mps 737 mmHg 55%
    13:00 +27°C° 0 mm 6 mps 737 mmHg 53%
    14:00 +27°C° 0 mm 6 mps 737 mmHg 55%
    15:00 +27°C° 0 mm 6 mps 737 mmHg 57%
    16:00 +26°C° 0 mm 6 mps 737 mmHg 59%
    17:00 +25°C° 0 mm 5 mps 737 mmHg 64%
    18:00 +23°C° 0 mm 5 mps 737 mmHg 70%
    19:00 +22°C° 0 mm 4 mps 737 mmHg 75%
    20:00 +21°C° 0 mm 4 mps 737 mmHg 78%
    21:00 +20°C° 0 mm 4 mps 737 mmHg 81%
    22:00 +19°C° 0 mm 4 mps 737 mmHg 84%
    23:00 +19°C° 0 mm 4 mps 737 mmHg 87%

    21 July, Saturday

    Time Temperature Precipitation Wind Pressure Humidity
    00:00 +18°C° 0 mm 4 mps 737 mmHg 89%
    01:00 +18°C° 0 mm 4 mps 737 mmHg 92%
    02:00 +17°C° 0 mm 3 mps 736 mmHg 93%
    03:00 +17°C° 0 mm 3 mps 736 mmHg 94%
    04:00 +16°C° 0 mm 3 mps 736 mmHg 95%
    05:00 +17°C° 0 mm 3 mps 736 mmHg 89%
    06:00 +19°C° 0 mm 4 mps 737 mmHg 83%
    07:00 +20°C° 0 mm 4 mps 737 mmHg 77%
    08:00 +21°C° 0 mm 4 mps 737 mmHg 71%
    09:00 +23°C° 0 mm 5 mps 737 mmHg 66%
    10:00 +25°C° 0 mm 5 mps 737 mmHg 60%
    11:00 +26°C° 0 mm 5 mps 736 mmHg 58%
    12:00 +27°C° 0 mm 5 mps 736 mmHg 56%
    13:00 +28°C° 0 mm 5 mps 736 mmHg 54%
    14:00 +28°C° 0 mm 5 mps 736 mmHg 55%
    15:00 +28°C° 0 mm 5 mps 736 mmHg 56%
    16:00 +27°C° 0 mm 5 mps 735 mmHg 56%
    17:00 +26°C° 0.1 mm 4 mps 735 mmHg 63%
    18:00 +25°C° 0.1 mm 3 mps 735 mmHg 69%
    19:00 +22°C° 0.1 mm 3 mps 735 mmHg 76%
    20:00 +21°C° 0 mm 3 mps 735 mmHg 79%
    21:00 +20°C° 0 mm 2 mps 736 mmHg 82%
    22:00 +19°C° 0 mm 2 mps 736 mmHg 86%
    23:00 +19°C° 0 mm 2 mps 736 mmHg 88%

    22 July, Sunday

    Time Temperature Precipitation Wind Pressure Humidity
    00:00 +18°C° 0 mm 2 mps 735 mmHg 90%
    01:00 +18°C° 0 mm 2 mps 735 mmHg 92%
    02:00 +17°C° 0 mm 2 mps 735 mmHg 93%
    03:00 +17°C° 0 mm 2 mps 736 mmHg 94%
    04:00 +16°C° 0 mm 2 mps 736 mmHg 95%
    05:00 +18°C° 0 mm 2 mps 736 mmHg 89%
    06:00 +19°C° 0 mm 2 mps 736 mmHg 83%
    07:00 +21°C° 0 mm 2 mps 736 mmHg 77%
    08:00 +22°C° 0 mm 3 mps 736 mmHg 70%
    09:00 +24°C° 0 mm 3 mps 736 mmHg 64%
    10:00 +26°C° 0 mm 3 mps 736 mmHg 57%
    11:00 +26°C° 0 mm 3 mps 736 mmHg 54%
    12:00 +27°C° 0 mm 4 mps 736 mmHg 52%
    13:00 +27°C° 0 mm 4 mps 736 mmHg 50%
    14:00 +27°C° 0 mm 4 mps 736 mmHg 50%
    15:00 +27°C° 0 mm 4 mps 736 mmHg 50%
    16:00 +27°C° 0 mm 4 mps 736 mmHg 51%
    17:00 +26°C° 0 mm 4 mps 736 mmHg 57%
    18:00 +24°C° 0 mm 3 mps 737 mmHg 63%
    19:00 +22°C° 0 mm 3 mps 737 mmHg 69%
    20:00 +21°C° 0 mm 3 mps 737 mmHg 72%
    21:00 +20°C° 0 mm 3 mps 737 mmHg 75%
    22:00 +19°C° 0 mm 3 mps 738 mmHg 78%
    23:00 +18°C° 0 mm 3 mps 738 mmHg 80%

    23 July, Monday

    Time Temperature Precipitation Wind Pressure Humidity
    00:00 +17°C° 0 mm 2 mps 738 mmHg 82%
    01:00 +16°C° 0 mm 2 mps 738 mmHg 84%
    02:00 +16°C° 0 mm 2 mps 738 mmHg 86%
    03:00 +15°C° 0 mm 2 mps 739 mmHg 87%
    04:00 +15°C° 0 mm 2 mps 739 mmHg 89%
    05:00 +17°C° 0 mm 2 mps 739 mmHg 84%
    06:00 +18°C° 0 mm 2 mps 739 mmHg 79%
    07:00 +20°C° 0 mm 2 mps 740 mmHg 74%
    08:00 +21°C° 0 mm 3 mps 740 mmHg 68%
    09:00 +22°C° 0 mm 3 mps 740 mmHg 62%
    10:00 +23°C° 0 mm 4 mps 740 mmHg 56%
    11:00 +25°C° 0 mm 4 mps 740 mmHg 54%
    12:00 +26°C° 0 mm 4 mps 739 mmHg 51%
    13:00 +26°C° 0 mm 4 mps 739 mmHg 48%
    14:00 +26°C° 0 mm 4 mps 739 mmHg 49%
    15:00 +26°C° 0 mm 4 mps 739 mmHg 50%
    16:00 +26°C° 0 mm 4 mps 739 mmHg 51%
    17:00 +25°C° 0 mm 3 mps 739 mmHg 57%
    18:00 +22°C° 0 mm 3 mps 739 mmHg 64%
    19:00 +21°C° 0 mm 2 mps 739 mmHg 70%
    20:00 +20°C° 0 mm 2 mps 739 mmHg 73%
    21:00 +19°C° 0 mm 2 mps 739 mmHg 76%
    22:00 +19°C° 0 mm 1 mps 740 mmHg 80%
    23:00 +18°C° 0 mm 2 mps 739 mmHg 82%
    Show more